NAVSTAR 74 (USA 262) 1 40730U 15033A 21111.09001752 -.00000054 00000-0 00000-0 0 9996 2 40730 55.4446 343.6460 0063398 359.6657 0.3778 2.00574090 42222 ATLAS 5 CENTAUR R/B 1 40731U 15033B 21111.04545140 -.00000067 00000-0 00000-0 0 9990 2 40731 55.9628 351.9116 0223500 328.9882 29.7609 1.90866807 40204